• In Hungary
  • List of Countries
  • For 7 days
  • Water Temperature
  • Satellite Maps
  • Weather Map
  • News
  • Weather Widgets
  • user-avatar
    Login

    Hourly Weather Wilkowiczki

    Today, 21 October, Saturday

    Time Temperature Precipitation Wind Pressure Humidity
    00:00 +12°C° 0 mm 2 mps 740 mmHg 72%
    01:00 +10°C° 0 mm 2 mps 740 mmHg 75%
    02:00 +10°C° 0.1 mm 3 mps 739 mmHg 75%
    03:00 +10°C° 0.1 mm 3 mps 739 mmHg 76%
    04:00 +10°C° 0.1 mm 3 mps 739 mmHg 76%
    05:00 +10°C° 0 mm 3 mps 739 mmHg 78%
    06:00 +10°C° 0 mm 3 mps 739 mmHg 79%
    07:00 +10°C° 0 mm 2 mps 739 mmHg 76%
    08:00 +12°C° 0 mm 2 mps 739 mmHg 73%
    09:00 +12°C° 0 mm 3 mps 739 mmHg 69%
    10:00 +14°C° 0 mm 3 mps 740 mmHg 66%
    11:00 +14°C° 0 mm 3 mps 739 mmHg 64%
    12:00 +16°C° 0 mm 3 mps 739 mmHg 62%
    13:00 +15°C° 0 mm 4 mps 739 mmHg 60%
    14:00 +16°C° 0 mm 3 mps 739 mmHg 62%
    15:00 +14°C° 0 mm 3 mps 739 mmHg 65%
    16:00 +15°C° 0 mm 2 mps 739 mmHg 67%
    17:00 +14°C° 0 mm 2 mps 739 mmHg 70%
    18:00 +13°C° 0 mm 1 mps 739 mmHg 74%
    19:00 +12°C° 0 mm 1 mps 740 mmHg 77%
    20:00 +12°C° 0 mm 1 mps 740 mmHg 79%
    21:00 +11°C° 0 mm 1 mps 740 mmHg 81%
    22:00 +11°C° 0 mm 1 mps 740 mmHg 83%
    23:00 +11°C° 0 mm 1 mps 740 mmHg 84%

    Tomorrow, 22 October, Sunday

    Time Temperature Precipitation Wind Pressure Humidity
    00:00 +10°C° 0 mm 1 mps 740 mmHg 85%
    01:00 +10°C° 0 mm 1 mps 739 mmHg 86%
    02:00 +10°C° 0 mm 1 mps 739 mmHg 87%
    03:00 +9°C° 0 mm 2 mps 739 mmHg 88%
    04:00 +9°C° 0 mm 2 mps 738 mmHg 89%
    05:00 +9°C° 0 mm 2 mps 738 mmHg 88%
    06:00 +9°C° 0 mm 2 mps 738 mmHg 86%
    07:00 +9°C° 0 mm 3 mps 738 mmHg 85%
    08:00 +9°C° 0.8 mm 2 mps 738 mmHg 85%
    09:00 +10°C° 0.8 mm 2 mps 738 mmHg 84%
    10:00 +10°C° 0.8 mm 2 mps 738 mmHg 83%
    11:00 +10°C° 0.9 mm 2 mps 738 mmHg 85%
    12:00 +10°C° 0.9 mm 2 mps 738 mmHg 86%
    13:00 +10°C° 0.9 mm 2 mps 738 mmHg 88%
    14:00 +10°C° 0.2 mm 2 mps 738 mmHg 88%
    15:00 +10°C° 0.2 mm 2 mps 737 mmHg 89%
    16:00 +10°C° 0.2 mm 2 mps 737 mmHg 89%
    17:00 +10°C° 0.2 mm 2 mps 737 mmHg 90%
    18:00 +10°C° 0.2 mm 2 mps 738 mmHg 91%
    19:00 +10°C° 0.2 mm 2 mps 738 mmHg 92%
    20:00 +10°C° 0.1 mm 2 mps 738 mmHg 92%
    21:00 +10°C° 0.1 mm 2 mps 738 mmHg 92%
    22:00 +10°C° 0.1 mm 2 mps 738 mmHg 92%
    23:00 +9°C° 0.3 mm 2 mps 738 mmHg 92%

    Day after tomorrow, 23 October, Monday

    Time Temperature Precipitation Wind Pressure Humidity
    00:00 +9°C° 0.3 mm 2 mps 738 mmHg 91%
    01:00 +9°C° 0.3 mm 2 mps 738 mmHg 91%
    02:00 +9°C° 0.3 mm 3 mps 738 mmHg 90%
    03:00 +9°C° 0.3 mm 3 mps 737 mmHg 90%
    04:00 +9°C° 0.3 mm 3 mps 737 mmHg 89%
    05:00 +8°C° 0.2 mm 3 mps 737 mmHg 89%
    06:00 +8°C° 0.2 mm 3 mps 737 mmHg 88%
    07:00 +8°C° 0.2 mm 3 mps 737 mmHg 87%
    08:00 +8°C° 0.2 mm 3 mps 738 mmHg 86%
    09:00 +7°C° 0.2 mm 4 mps 738 mmHg 84%
    10:00 +8°C° 0.2 mm 4 mps 738 mmHg 82%
    11:00 +8°C° 0.2 mm 4 mps 738 mmHg 81%
    12:00 +8°C° 0.2 mm 4 mps 738 mmHg 80%
    13:00 +10°C° 0.2 mm 4 mps 738 mmHg 79%
    14:00 +8°C° 0.1 mm 4 mps 738 mmHg 80%
    15:00 +9°C° 0.1 mm 3 mps 738 mmHg 81%
    16:00 +9°C° 0.1 mm 3 mps 738 mmHg 83%
    17:00 +9°C° 0.3 mm 3 mps 739 mmHg 85%
    18:00 +9°C° 0.3 mm 3 mps 739 mmHg 87%
    19:00 +7°C° 0.3 mm 4 mps 739 mmHg 89%
    20:00 +7°C° 0.4 mm 4 mps 740 mmHg 89%
    21:00 +7°C° 0.4 mm 4 mps 740 mmHg 90%
    22:00 +7°C° 0.4 mm 4 mps 740 mmHg 90%
    23:00 +7°C° 0.5 mm 4 mps 741 mmHg 90%

    24 October, Tuesday

    Time Temperature Precipitation Wind Pressure Humidity
    00:00 +7°C° 0.5 mm 4 mps 741 mmHg 90%
    01:00 +7°C° 0.5 mm 4 mps 741 mmHg 91%
    02:00 +7°C° 0.4 mm 4 mps 741 mmHg 90%
    03:00 +7°C° 0.4 mm 4 mps 742 mmHg 90%
    04:00 +6°C° 0.4 mm 4 mps 742 mmHg 89%
    05:00 +6°C° 0.1 mm 4 mps 742 mmHg 89%
    06:00 +6°C° 0.1 mm 4 mps 743 mmHg 88%
    07:00 +6°C° 0.1 mm 4 mps 744 mmHg 88%
    08:00 +6°C° 0 mm 4 mps 744 mmHg 85%
    09:00 +7°C° 0 mm 3 mps 744 mmHg 82%
    10:00 +7°C° 0 mm 3 mps 745 mmHg 80%
    11:00 +8°C° 0 mm 3 mps 745 mmHg 77%
    12:00 +8°C° 0 mm 3 mps 745 mmHg 74%
    13:00 +9°C° 0 mm 3 mps 746 mmHg 71%
    14:00 +9°C° 0 mm 3 mps 746 mmHg 72%
    15:00 +9°C° 0 mm 3 mps 746 mmHg 72%
    16:00 +9°C° 0 mm 2 mps 747 mmHg 72%
    17:00 +8°C° 0 mm 2 mps 747 mmHg 75%
    18:00 +7°C° 0 mm 2 mps 747 mmHg 77%
    19:00 +6°C° 0 mm 2 mps 748 mmHg 79%
    20:00 +6°C° 0 mm 2 mps 748 mmHg 80%
    21:00 +5°C° 0 mm 2 mps 748 mmHg 81%
    22:00 +6°C° 0 mm 1 mps 748 mmHg 81%
    23:00 +6°C° 0 mm 1 mps 749 mmHg 81%

    25 October, Wednesday

    Time Temperature Precipitation Wind Pressure Humidity
    00:00 +5°C° 0 mm 1 mps 749 mmHg 81%
    01:00 +5°C° 0 mm 1 mps 749 mmHg 81%
    02:00 +5°C° 0 mm 1 mps 749 mmHg 81%
    03:00 +4°C° 0 mm 1 mps 749 mmHg 81%
    04:00 +4°C° 0 mm 1 mps 749 mmHg 81%
    05:00 +4°C° 0 mm 1 mps 749 mmHg 80%
    06:00 +4°C° 0 mm 1 mps 749 mmHg 80%
    07:00 +2°C° 0 mm 2 mps 750 mmHg 79%
    08:00 +4°C° 0 mm 2 mps 750 mmHg 72%
    09:00 +5°C° 0 mm 2 mps 750 mmHg 64%
    10:00 +6°C° 0 mm 2 mps 750 mmHg 57%
    11:00 +7°C° 0 mm 2 mps 750 mmHg 53%
    12:00 +8°C° 0 mm 2 mps 750 mmHg 49%
    13:00 +9°C° 0 mm 2 mps 749 mmHg 45%
    14:00 +8°C° 0 mm 2 mps 749 mmHg 48%
    15:00 +8°C° 0 mm 2 mps 749 mmHg 51%
    16:00 +7°C° 0 mm 2 mps 749 mmHg 54%
    17:00 +6°C° 0 mm 2 mps 749 mmHg 57%
    18:00 +6°C° 0 mm 2 mps 749 mmHg 59%
    19:00 +5°C° 0 mm 2 mps 750 mmHg 62%
    20:00 +4°C° 0 mm 3 mps 750 mmHg 61%
    21:00 +4°C° 0 mm 3 mps 750 mmHg 60%
    22:00 +4°C° 0 mm 3 mps 750 mmHg 60%
    23:00 +4°C° 0 mm 3 mps 749 mmHg 59%

    26 October, Thursday

    Time Temperature Precipitation Wind Pressure Humidity
    00:00 +4°C° 0 mm 3 mps 749 mmHg 59%
    01:00 +6°C° 0 mm 2 mps 749 mmHg 59%
    02:00 +6°C° 0 mm 2 mps 749 mmHg 59%
    03:00 +6°C° 0 mm 2 mps 748 mmHg 58%
    04:00 +6°C° 0 mm 2 mps 748 mmHg 58%
    05:00 +6°C° 0 mm 2 mps 748 mmHg 59%
    06:00 +7°C° 0 mm 3 mps 748 mmHg 60%
    07:00 +7°C° 0 mm 3 mps 748 mmHg 61%
    08:00 +8°C° 0 mm 3 mps 748 mmHg 63%
    09:00 +8°C° 0 mm 3 mps 748 mmHg 64%
    10:00 +9°C° 0 mm 3 mps 748 mmHg 66%
    11:00 +10°C° 0 mm 3 mps 748 mmHg 68%
    12:00 +10°C° 0 mm 3 mps 747 mmHg 71%
    13:00 +11°C° 0 mm 3 mps 747 mmHg 73%
    14:00 +11°C° 0 mm 3 mps 747 mmHg 75%
    15:00 +11°C° 0 mm 3 mps 746 mmHg 77%
    16:00 +11°C° 0 mm 3 mps 746 mmHg 79%
    17:00 +10°C° 0 mm 3 mps 746 mmHg 80%
    18:00 +10°C° 0 mm 3 mps 746 mmHg 82%
    19:00 +10°C° 0 mm 3 mps 746 mmHg 83%
    20:00 +10°C° 0 mm 3 mps 746 mmHg 84%
    21:00 +9°C° 0 mm 3 mps 745 mmHg 86%
    22:00 +8°C° 0 mm 4 mps 745 mmHg 87%
    23:00 +8°C° 0 mm 4 mps 744 mmHg 87%
    Show more